Wind_Speed
15 15 14 14 13 12 12 11 10 10 10 10 10 10 10 11 12 13 14 14 15 15 16 16 17 18 18 20 21 22 23 23 23 23 22 20 20 20 22 25 25 24 23 22 21 19 17 16 15 13 12 10 10 9 9 9 9 9 9 8 8 8 7 9 8 8 10 10 10 10 11 11 9 8 8 7 6 7 7 7 5 5 6 7 10 12 13 12
15 15 15 15 14 14 14 13 13 12 12 11 11 11 11 11 12 13 14 15 16 16 17 17 18 19 19 20 21 22 23 24 24 24 23 22 22 21 22 24 25 25 26 25 23 21 19 18 16 15 13 12 11 10 10 10 10 10 9 8 9 9 7 10 10 9 11 11 11 12 13 14 12 11 11 10 8 8 8 7 6 6 6 7 10 12 13 13
16 16 16 16 16 16 16 16 15 15 14 14 13 12 12 12 12 13 14 15 17 17 18 18 19 19 21 21 22 22 23 24 25 24 24 24 23 23 24 24 24 25 26 27 25 24 22 20 18 16 14 13 12 11 11 11 11 11 9 8 9 10 8 9 11 10 12 11 11 14 15 14 14 13 12 11 11 10 9 8 8 7 8 8 10 11 12 13
16 16 17 17 17 17 17 17 17 17 17 16 15 14 13 13 13 14 14 16 17 18 19 20 20 21 21 22 23 23 23 26 25 24 26 25 25 25 26 26 25 25 25 26 25 25 24 22 20 18 16 15 13 12 12 12 12 11 10 10 9 10 10 9 10 10 9 9 13 15 15 16 15 14 13 13 12 10 9 10 9 8 10 10 10 11 12 13
17 17 18 18 18 19 19 19 19 19 18 18 17 16 16 15 15 15 15 16 17 18 19 20 21 22 23 23 24 24 25 27 21 23 27 26 26 26 27 28 27 26 25 24 24 25 25 24 22 21 19 18 15 14 13 13 13 12 11 10 9 10 11 9 8 8 7 9 15 17 17 18 16 15 14 13 12 11 10 11 10 9 11 11 11 11 12 13
19 19 19 20 20 20 20 21 20 20 20 19 19 18 18 17 17 16 16 17 17 19 19 21 22 23 24 24 25 25 27 27 18 22 27 25 27 28 28 29 28 27 26 24 24 24 25 24 23 23 22 20 18 16 15 15 14 13 13 11 9 9 11 9 6 8 9 9 17 19 19 18 15 14 13 13 12 11 11 11 11 10 10 11 11 12 12 13
21 21 21 21 22 22 22 22 21 21 21 20 20 20 19 19 18 18 18 18 18 19 20 21 22 24 25 26 27 26 29 28 19 24 28 24 28 29 29 29 28 28 28 27 26 25 24 23 23 22 22 21 20 18 17 17 16 15 14 13 10 9 10 8 7 10 7 2 12 18 17 15 14 13 13 12 11 10 11 11 12 11 10 10 10 11 12 12
23 23 23 23 23 23 23 23 22 22 21 21 21 20 20 20 20 20 19 19 19 20 21 21 22 24 26 27 28 29 31 27 19 26 31 27 28 29 30 30 29 30 29 29 28 27 25 23 22 22 22 22 20 19 18 18 17 16 15 14 12 9 8 7 7 8 5 9 9 12 12 12 13 12 13 12 10 10 11 11 12 12 11 10 10 11 11 11
24 24 24 24 24 24 23 23 23 22 22 22 21 21 21 21 21 21 21 21 21 21 22 22 23 24 26 28 29 32 32 26 22 29 33 31 29 29 31 31 30 31 30 31 30 28 27 25 24 23 22 20 19 18 17 16 16 15 16 15 13 9 6 3 3 2 9 11 9 9 9 10 11 11 12 12 11 11 11 11 11 12 11 10 10 11 11 11
24 25 25 25 24 24 24 23 23 23 23 22 22 22 22 22 22 23 22 23 23 23 23 24 24 25 27 28 31 34 31 25 26 30 32 32 32 31 31 31 31 31 31 32 31 30 29 27 27 25 21 18 18 17 16 17 17 16 15 15 12 8 6 5 3 5 11 10 8 8 8 9 10 10 11 12 12 12 11 11 11 11 11 11 11 11 12 12
25 25 25 25 24 24 24 24 23 23 23 23 23 23 23 23 23 24 24 24 24 24 25 25 26 27 28 29 33 34 28 26 29 31 34 34 33 33 32 32 32 32 33 32 32 32 31 30 28 24 21 20 18 17 17 17 17 16 15 14 12 8 9 10 6 7 11 8 7 8 10 10 10 10 12 13 13 13 12 11 11 11 10 11 11 11 11 11
25 25 25 25 25 24 24 24 24 24 24 24 24 24 24 24 24 24 25 25 25 25 25 26 27 28 29 32 35 31 27 30 32 33 36 35 35 35 34 33 33 33 34 34 34 33 32 32 28 25 24 21 18 18 17 16 16 16 15 13 11 7 8 10 8 9 11 9 9 11 11 9 10 11 11 13 13 13 13 13 12 11 10 11 12 12 12 11
26 26 26 26 25 25 25 24 24 24 24 25 25 25 25 25 25 25 26 26 26 25 25 26 27 29 30 33 33 30 32 35 34 35 37 36 37 36 35 35 34 35 35 35 35 34 34 31 28 28 27 21 19 19 17 16 18 17 15 15 12 8 7 9 9 10 12 11 10 13 13 10 10 11 10 12 14 13 14 14 13 12 11 11 12 12 12 11
26 26 26 26 26 26 25 25 25 25 25 25 25 25 25 25 25 25 26 26 26 26 25 25 26 28 30 32 32 32 35 35 34 37 37 37 38 37 37 36 35 36 36 36 35 35 33 30 28 29 25 21 21 21 17 18 18 16 16 16 13 11 10 10 12 12 13 13 11 12 15 12 10 10 11 12 14 14 14 15 14 13 12 11 11 12 12 11
27 27 27 27 26 26 26 25 25 25 25 25 25 25 25 25 25 25 25 26 26 26 25 24 24 26 28 30 31 33 34 34 35 36 36 37 38 37 38 37 36 37 36 37 36 35 32 30 30 29 26 25 24 21 19 19 16 14 15 15 14 14 12 10 12 15 16 15 13 14 15 14 12 11 11 12 13 14 15 15 15 14 13 12 11 11 11 11
27 27 27 27 27 26 26 25 25 25 25 25 25 24 24 24 24 24 24 24 24 24 23 22 22 23 24 25 27 31 33 33 33 34 36 37 37 38 37 36 37 37 37 37 35 34 33 33 33 31 29 28 25 23 22 20 17 13 12 15 15 13 12 11 13 16 18 18 15 16 16 14 14 13 11 11 13 14 15 16 16 15 14 13 12 11 11 11
27 27 27 27 26 26 25 25 25 25 25 24 24 23 23 22 22 22 22 21 21 21 20 19 19 20 20 20 23 26 28 29 30 32 35 35 36 36 35 36 37 36 37 37 35 35 36 36 36 33 30 27 26 26 24 20 15 10 11 15 17 14 14 14 14 14 17 19 18 17 17 17 16 15 13 13 13 15 16 17 17 17 16 15 13 12 12 12
27 26 26 26 26 25 25 25 24 24 24 23 23 22 21 20 20 20 19 19 18 18 17 17 17 17 17 17 19 20 22 25 27 30 32 32 34 34 35 36 36 36 37 36 36 36 37 37 36 33 32 30 27 26 25 20 10 7 13 15 18 17 16 15 14 13 16 19 20 19 19 20 19 17 16 16 15 15 16 18 18 17 17 16 15 14 13 13
26 26 26 26 26 25 24 24 23 23 23 22 21 20 19 19 19 18 17 17 16 15 15 15 15 16 15 15 15 16 18 21 23 26 28 30 31 32 34 34 34 35 36 36 37 37 37 37 36 35 34 32 30 24 23 20 13 9 14 15 18 18 17 17 15 13 15 18 20 21 21 21 20 18 17 18 17 16 17 18 19 18 18 17 16 15 15 14
26 25 26 26 25 24 24 23 23 22 21 21 20 20 19 18 17 17 17 16 16 15 14 14 15 16 15 14 14 15 16 17 20 22 24 27 29 30 32 32 33 34 35 36 37 37 38 37 37 36 33 31 28 22 20 22 18 13 11 11 15 18 17 17 18 15 14 15 19 21 21 20 20 19 19 20 19 17 17 18 19 19 17 17 17 17 16 15
25 25 25 25 24 24 23 23 22 21 20 19 19 18 18 17 17 16 16 16 16 15 15 15 15 16 16 15 14 14 15 16 18 19 22 24 26 28 30 30 31 32 34 35 36 38 38 37 37 35 32 30 26 22 23 26 22 13 10 12 15 16 18 18 18 16 12 13 17 20 20 20 20 21 21 23 22 20 19 19 20 20 19 18 18 18 17 16
24 24 24 24 24 24 23 22 21 20 19 18 17 17 16 16 16 16 15 15 15 15 15 15 15 16 16 16 15 14 14 16 16 18 20 22 24 27 28 29 31 31 33 34 36 38 38 37 37 34 32 29 25 25 27 28 22 12 12 16 12 12 16 18 19 17 13 12 15 17 18 19 20 22 21 23 25 25 23 22 21 20 21 20 19 19 18 17
23 23 24 23 23 23 22 22 21 19 18 17 16 15 15 15 15 15 15 15 15 15 14 14 14 15 15 15 15 14 15 15 16 18 20 21 23 26 27 28 29 29 31 33 35 36 36 36 35 33 32 28 27 29 31 30 21 15 15 11 4 11 14 16 18 19 15 11 13 16 16 17 18 20 22 23 27 30 26 23 22 21 21 21 20 21 19 18
23 23 23 23 23 22 22 21 20 18 17 15 14 14 14 14 14 15 15 15 13 11 11 14 15 15 14 15 14 13 14 13 14 17 19 21 23 24 25 25 26 29 29 30 33 34 34 33 32 32 30 28 30 30 32 31 19 16 20 14 2 14 17 18 19 18 17 14 13 16 16 16 17 18 20 22 26 30 27 25 24 22 21 22 22 22 21 20
22 22 22 22 22 21 21 20 19 17 14 13 12 12 13 14 14 14 14 12 9 10 13 14 15 14 12 12 12 12 12 12 14 17 17 20 22 22 23 24 25 26 22 23 30 35 33 27 25 28 30 30 30 28 26 26 19 16 18 19 12 10 15 21 21 17 18 17 15 16 15 15 15 15 19 22 24 27 27 28 28 24 22 22 23 23 23 22
21 22 22 22 21 21 20 19 18 15 12 11 11 12 13 13 13 12 11 9 7 15 22 19 16 14 11 10 10 8 7 10 13 15 14 16 19 20 22 25 25 22 19 24 31 33 30 24 22 27 30 29 29 28 23 23 22 13 10 16 17 11 14 19 18 17 17 16 16 16 15 15 12 10 15 18 20 23 26 30 30 26 24 23 22 22 22 23
21 21 21 21 21 20 19 18 15 12 11 10 11 13 12 12 12 10 11 8 5 15 22 19 18 15 11 9 8 5 5 7 9 12 12 13 16 17 20 21 24 22 21 25 28 30 29 23 24 30 28 26 32 33 25 25 26 15 9 18 17 13 17 17 15 17 17 15 15 16 17 17 13 10 11 14 16 19 24 30 31 28 27 24 21 22 22 23
20 20 21 21 20 19 18 16 13 11 10 10 11 12 11 11 10 9 11 6 5 15 19 15 16 15 12 10 7 6 7 7 7 9 10 13 14 16 17 16 20 22 23 26 23 23 24 17 22 34 29 20 28 33 26 25 27 19 15 23 22 20 18 15 11 11 12 13 13 14 15 16 15 14 13 13 14 16 19 25 30 29 27 24 22 21 22 22
19 20 20 21 20 18 17 15 12 9 8 9 11 11 11 9 8 11 11 7 10 16 16 16 15 12 10 7 4 4 5 8 8 7 7 11 14 16 18 17 19 19 21 25 20 12 16 17 21 34 35 22 19 25 27 28 27 20 16 21 23 22 15 11 9 9 13 15 12 12 13 15 16 16 15 13 12 13 14 17 25 29 28 27 25 23 23 22
19 19 20 20 19 17 16 13 10 8 7 9 10 10 10 7 9 11 8 10 14 14 14 16 13 10 10 6 7 10 3 7 12 8 7 7 12 15 15 17 18 15 14 21 21 19 20 25 28 31 32 29 23 19 21 27 28 19 16 21 25 22 15 11 12 15 20 18 14 14 14 16 17 15 16 15 11 11 12 12 16 24 28 28 26 26 24 22
18 19 19 20 19 17 15 12 9 7 7 8 9 9 8 6 9 13 9 11 10 10 11 12 11 10 10 5 3 11 5 4 10 7 8 7 8 14 14 16 17 14 16 19 25 28 22 20 31 36 32 31 30 22 16 21 24 19 17 23 27 23 18 14 12 18 23 17 14 16 15 16 17 14 16 17 15 12 11 11 12 16 21 23 26 28 27 23
18 18 18 20 18 16 14 11 9 7 7 8 8 8 7 6 9 11 10 12 5 5 4 7 9 7 5 7 2 8 4 5 8 2 4 5 6 11 12 13 13 11 12 13 20 29 23 16 26 36 35 32 29 23 16 16 18 19 19 19 20 19 16 14 13 16 19 15 13 16 17 17 18 16 15 17 17 14 12 13 13 13 15 17 19 26 29 25
18 18 18 19 18 16 13 10 8 6 6 7 7 8 7 7 9 8 7 12 9 9 6 8 7 3 3 7 2 7 4 2 2 6 6 7 6 11 12 13 15 14 15 13 15 19 20 19 24 29 32 32 31 25 18 16 17 19 20 17 16 15 12 13 14 14 16 17 16 17 18 19 20 18 15 16 17 16 15 14 14 15 16 15 13 17 27 28
17 17 17 18 17 16 13 10 7 6 6 6 7 8 5 6 10 6 2 9 10 8 6 7 4 4 2 4 3 5 1 6 3 4 7 7 6 10 12 13 12 11 15 16 18 16 16 18 25 27 25 27 31 26 18 15 18 20 20 18 14 13 12 13 12 11 13 13 14 18 20 21 22 20 17 18 18 17 16 14 14 16 18 18 15 14 20 24
17 17 17 18 17 15 13 9 7 6 5 5 5 6 6 5 2 5 5 8 8 6 3 10 3 5 3 3 4 2 4 8 2 2 7 5 7 10 10 11 7 6 11 14 21 25 19 12 19 23 20 23 27 26 25 20 16 18 21 23 19 13 13 16 15 13 12 12 13 18 22 22 23 22 20 18 17 17 15 11 12 15 17 19 18 17 18 19
17 16 16 17 17 15 13 9 7 6 5 6 6 5 6 4 5 10 8 8 8 1 4 7 6 2 5 6 5 4 5 5 1 6 11 9 8 8 8 11 12 11 13 15 19 25 20 11 14 16 15 20 22 26 32 26 17 12 18 22 24 19 14 14 16 16 16 17 17 16 19 20 21 23 23 20 16 15 15 11 11 14 16 18 19 19 20 20
17 16 16 16 16 14 12 9 6 6 5 6 8 5 3 5 4 6 8 7 8 5 1 3 4 1 3 7 4 3 6 7 4 5 9 10 7 6 5 6 13 14 10 14 20 24 21 12 11 11 8 12 17 27 36 33 24 16 8 14 20 23 20 15 15 15 14 15 13 12 17 20 19 21 24 23 18 15 15 13 13 15 15 16 18 18 18 19
17 16 15 15 15 14 12 8 6 7 7 7 8 7 5 6 6 6 8 7 6 5 1 2 3 4 2 6 3 1 6 8 6 4 5 9 6 6 7 4 12 15 13 16 20 20 21 15 10 9 9 10 16 25 34 35 31 25 16 11 16 21 24 24 21 17 14 14 12 12 18 21 21 19 20 22 21 19 19 18 19 20 19 17 17 18 17 17
17 15 15 14 14 13 10 8 7 7 8 6 3 5 7 7 7 7 8 7 5 4 1 3 4 3 4 4 3 2 2 6 8 5 5 8 6 8 12 8 9 11 11 18 21 16 18 18 13 7 9 12 18 21 26 28 30 30 26 19 14 14 19 23 25 21 15 13 13 12 17 22 23 20 17 18 20 20 21 22 22 21 21 20 19 18 17 15
17 15 14 14 13 12 10 9 8 8 10 9 2 3 7 8 7 7 8 7 6 5 1 2 1 1 3 3 3 4 6 4 7 5 3 8 8 8 13 13 12 11 11 20 24 15 14 17 16 11 11 12 14 15 18 19 23 28 29 21 12 13 18 19 22 24 20 17 13 12 17 22 23 20 17 16 19 23 23 22 20 19 21 22 19 19 18 15
18 16 14 14 12 12 11 9 10 9 8 10 9 7 7 8 8 7 7 6 6 5 3 3 3 1 3 4 2 5 5 1 3 3 2 7 7 6 11 14 15 16 13 16 14 10 12 16 18 17 15 13 12 13 14 18 18 23 29 26 18 15 18 16 14 18 21 21 18 13 14 22 22 19 19 19 20 21 20 19 17 18 22 20 17 18 18 16
18 16 15 13 12 13 11 11 11 8 7 9 10 8 8 8 8 7 7 7 5 4 3 2 3 2 3 4 3 4 3 0 2 3 2 5 8 7 8 9 10 11 12 13 10 15 21 20 18 19 19 18 19 19 17 19 17 19 25 28 23 16 12 15 15 14 17 20 20 16 14 23 22 18 19 22 24 19 15 16 16 18 22 20 15 16 17 16
17 16 15 13 13 13 11 13 11 5 6 11 9 8 9 9 8 7 7 6 5 4 2 1 4 4 2 2 3 3 3 5 6 6 5 8 11 11 10 9 7 8 11 15 18 24 28 26 23 23 20 17 18 21 20 18 13 16 19 21 24 21 16 15 17 16 13 13 15 15 20 27 26 21 20 22 26 22 16 17 17 18 22 21 16 16 16 17
18 17 15 12 12 12 11 13 8 1 5 10 10 11 11 9 9 9 7 6 6 6 5 3 5 6 3 2 2 3 2 4 5 6 7 11 12 12 12 11 10 11 12 12 19 23 24 27 28 27 23 16 15 21 23 21 18 23 23 19 20 22 23 20 18 19 18 16 16 16 22 29 31 30 26 23 23 20 16 18 19 18 20 21 19 17 16 18
19 17 15 12 13 13 10 9 6 5 7 11 13 14 12 11 11 10 8 8 7 7 8 7 6 6 5 3 3 3 4 4 4 5 6 10 13 13 13 13 12 13 11 10 16 20 22 26 30 30 28 20 17 21 23 21 22 25 22 16 13 16 22 22 19 20 19 19 22 23 25 29 31 32 31 27 23 19 17 18 19 18 19 20 20 20 20 21
18 17 16 14 12 10 9 11 11 10 10 11 13 14 12 12 13 10 10 10 7 7 9 10 9 9 7 6 6 6 6 5 6 6 6 7 9 10 11 13 13 12 10 12 16 18 22 24 26 31 33 26 19 19 21 21 21 19 18 18 18 22 28 29 25 25 23 19 23 29 31 31 30 30 32 32 26 21 19 19 19 18 19 19 19 21 24 24
18 17 16 14 11 8 11 14 14 13 12 10 10 12 13 14 14 11 11 11 9 8 9 9 10 11 10 10 9 8 7 8 9 10 9 8 10 12 11 11 14 13 11 13 14 16 20 22 23 29 33 31 24 17 17 21 23 21 24 29 29 29 35 37 32 30 30 26 26 31 34 35 34 29 29 33 30 25 24 24 22 19 19 21 20 19 22 25
19 16 15 14 12 9 10 12 12 11 12 13 12 11 12 14 14 14 14 12 10 9 9 9 10 11 11 12 12 10 9 11 12 11 11 11 13 15 12 10 13 13 12 13 15 17 19 21 24 27 29 29 27 21 17 19 24 24 27 34 34 30 35 41 37 34 35 33 30 34 38 39 37 30 26 29 31 29 28 28 27 23 20 22 20 17 19 24
19 16 16 14 11 9 8 11 11 7 8 14 14 12 12 13 13 15 15 12 11 11 9 9 9 10 11 11 12 12 12 12 11 10 10 12 12 12 11 9 9 10 11 14 16 16 15 17 23 27 29 29 29 28 23 20 22 23 25 31 34 32 34 39 37 37 39 38 36 38 39 40 40 36 31 27 28 30 31 31 30 27 25 24 20 16 16 22
19 17 17 14 12 13 12 11 11 9 11 15 13 12 15 14 12 14 16 15 14 11 9 10 10 9 10 10 10 11 11 9 9 9 9 10 9 9 9 9 8 9 10 13 16 14 13 16 20 25 28 29 29 31 29 23 23 23 23 27 30 29 30 32 35 37 38 39 39 37 37 38 38 38 38 34 30 29 30 33 33 30 31 31 27 20 16 19
20 19 18 15 15 17 15 12 11 10 12 14 12 13 17 17 16 17 17 17 16 13 11 12 10 8 9 8 8 9 8 6 8 9 9 9 9 8 8 7 8 9 9 12 14 12 12 16 18 21 24 26 27 29 29 26 25 23 20 22 24 24 23 27 34 37 36 38 39 35 35 38 36 34 37 39 38 34 31 32 35 34 34 35 35 31 22 18
21 21 19 17 18 19 16 16 14 9 7 8 9 11 13 14 18 20 19 17 17 16 14 12 10 9 9 8 7 7 6 5 5 6 7 9 9 9 8 7 7 9 9 10 12 12 13 14 16 19 22 24 25 25 24 24 24 24 22 21 22 22 21 23 30 34 34 36 39 38 39 42 40 35 35 37 40 40 35 33 36 38 38 37 40 40 31 23
Wind_Direction
351 350 349 348 347 345 344 341 337 333 326 321 313 305 299 295 292 289 286 283 279 275 270 266 261 257 252 246 242 241 240 239 238 238 237 234 232 232 233 235 235 234 236 235 233 229 227 227 231 235 240 244 249 254 255 261 269 273 281 300 300 298 314 301 291 285 274 267 260 253 245 235 216 205 197 193 191 169 165 166 165 162 155 154 147 134 122 117
347 346 345 344 343 342 341 339 337 334 329 325 318 310 301 292 288 284 282 280 279 276 273 269 264 261 258 254 249 244 241 240 239 237 237 234 233 232 232 236 236 234 235 235 234 231 230 229 231 234 239 244 246 251 256 258 264 272 282 294 292 297 311 297 291 286 275 266 251 244 237 228 216 209 198 190 190 174 170 171 174 169 156 160 150 134 127 122
344 343 342 341 341 340 339 337 336 333 330 326 320 314 305 296 289 283 279 276 275 274 272 270 267 263 260 258 255 251 246 242 240 237 237 235 233 232 233 236 236 235 235 236 235 234 233 233 234 236 239 245 247 251 256 258 263 270 277 283 286 298 303 292 292 289 279 266 243 240 235 219 211 208 199 191 188 178 174 173 179 174 162 163 152 140 134 126
344 342 341 341 340 339 337 335 333 331 328 325 320 315 308 301 293 287 280 275 272 270 269 268 266 264 261 259 257 256 253 248 242 237 237 235 233 232 233 235 236 236 236 237 236 235 236 235 236 237 239 243 246 251 255 256 262 268 271 274 284 294 294 301 302 292 283 259 232 233 226 209 204 204 197 194 190 179 175 179 182 178 165 163 156 147 140 129
344 342 341 341 339 337 335 333 331 328 325 322 319 315 310 304 297 292 285 279 274 269 267 265 264 263 262 260 258 256 254 254 247 240 239 235 234 233 233 235 235 236 237 238 237 236 237 237 237 237 238 241 242 245 252 255 257 264 269 270 281 289 294 310 306 303 308 253 225 217 206 197 197 199 194 194 192 176 175 182 182 180 167 161 159 153 146 136
343 341 341 340 338 335 333 330 328 325 322 320 316 314 310 306 301 295 289 284 277 272 268 264 262 260 260 259 258 256 254 255 247 242 242 234 234 234 232 235 235 236 237 237 237 237 237 237 236 236 237 240 241 240 245 252 254 261 266 271 284 288 296 310 315 329 329 254 217 196 185 184 184 189 189 191 192 178 177 183 181 181 172 164 163 158 152 143
341 340 339 337 335 332 330 328 326 323 320 317 315 313 309 306 302 297 292 286 279 275 269 264 261 258 258 256 256 254 253 255 244 240 245 234 232 233 231 233 233 235 235 235 236 235 236 235 234 234 235 237 237 237 241 249 253 259 263 269 276 278 293 311 335 340 346 185 185 174 168 176 180 184 185 186 190 183 179 183 185 182 176 173 168 160 154 147
338 337 336 334 332 330 328 326 324 322 320 317 315 311 308 306 301 298 293 288 283 277 272 268 262 259 257 255 254 251 252 259 246 239 246 239 233 232 231 231 231 233 233 234 234 233 234 233 232 231 230 231 229 229 234 243 250 257 259 261 263 268 291 315 347 355 62 104 131 153 162 176 183 186 187 188 189 185 180 181 187 185 178 177 172 163 155 150
336 334 333 332 330 329 327 325 324 322 319 317 314 311 308 305 301 298 294 290 285 280 276 270 264 260 256 254 253 252 255 259 244 239 244 241 236 233 232 231 230 231 232 233 233 232 233 231 231 229 227 227 226 226 229 237 244 249 253 256 258 262 268 278 341 86 130 121 124 148 168 179 185 188 190 192 185 181 182 180 184 186 182 178 176 172 163 159
334 333 331 330 329 328 327 325 323 321 319 316 314 311 308 305 302 299 295 292 287 283 279 273 268 262 257 255 252 254 259 256 244 241 243 241 238 235 233 231 230 231 232 233 233 232 231 230 230 229 227 226 224 222 223 230 234 238 244 247 250 251 224 208 226 182 160 146 144 158 173 181 190 193 191 192 182 180 184 180 183 186 185 182 179 178 171 167
333 332 330 329 329 328 327 325 322 320 318 316 313 311 308 306 303 300 297 293 289 285 280 274 270 264 259 256 253 257 261 252 243 241 240 240 238 235 232 231 229 230 231 232 233 232 230 229 229 230 228 224 220 215 218 227 232 234 237 240 246 237 205 201 205 190 183 184 182 180 183 185 196 201 197 194 183 182 185 179 185 189 186 186 183 181 177 173
333 331 330 330 329 329 327 325 323 321 319 317 315 313 311 308 306 303 300 296 292 287 282 276 270 265 261 256 256 259 256 246 240 238 237 236 235 234 231 229 227 228 229 230 231 231 230 229 228 229 228 223 217 213 213 225 235 233 228 233 246 243 210 207 205 197 201 208 200 191 191 188 194 204 205 200 189 184 185 179 184 191 188 187 187 186 184 183
333 331 331 330 330 330 328 326 324 322 320 318 317 315 313 311 309 307 304 301 298 292 286 279 271 266 261 257 257 255 248 244 239 237 236 234 233 232 229 227 225 226 227 229 230 230 230 229 227 228 229 223 218 215 210 218 232 232 226 227 237 244 223 209 208 215 218 213 203 198 199 195 197 204 206 207 200 189 185 182 183 190 191 189 189 189 189 190
333 332 331 331 331 330 328 327 325 323 321 319 318 316 314 313 312 311 309 307 304 299 293 284 275 267 261 258 255 250 246 244 240 236 235 234 233 231 228 226 224 224 225 227 229 230 230 229 227 229 228 222 218 218 214 216 227 231 228 230 237 239 228 219 218 222 223 217 214 210 205 203 202 203 205 210 208 196 189 187 185 189 194 194 194 192 191 193
333 332 331 331 331 330 329 327 325 323 322 320 319 317 316 316 316 316 315 314 311 306 300 292 282 272 264 259 254 250 247 243 240 237 235 233 231 229 227 225 223 223 224 225 226 228 229 227 226 226 223 221 216 216 220 222 226 232 231 231 236 237 232 227 220 222 226 222 219 218 215 214 208 203 206 209 209 203 195 191 189 191 196 199 199 196 193 193
332 332 332 332 331 331 329 327 326 325 324 322 320 319 319 320 320 322 321 320 318 314 309 302 293 282 272 264 256 251 247 243 241 239 236 233 231 228 226 224 222 221 222 224 224 226 226 224 223 221 219 221 214 210 216 221 226 234 232 227 230 235 234 226 216 220 227 223 217 218 221 220 215 211 211 212 211 207 199 195 195 194 194 200 203 199 196 194
332 332 332 332 332 331 329 329 328 327 325 323 322 321 322 323 324 325 325 325 324 322 318 311 302 292 283 274 263 256 252 247 242 239 236 233 231 228 225 223 221 221 221 222 222 223 224 224 223 219 217 219 216 210 210 215 224 239 239 228 228 234 234 232 230 225 225 223 216 217 221 219 218 219 217 216 215 210 204 201 202 198 194 197 202 199 198 195
332 332 332 333 333 332 330 330 330 329 326 324 323 323 323 324 324 325 327 327 326 325 322 317 310 301 293 285 273 265 258 250 243 239 237 234 231 227 224 222 220 220 220 220 220 221 223 224 223 220 217 215 214 211 209 205 199 244 251 232 227 234 232 232 241 235 228 227 219 217 222 220 220 225 223 219 217 212 207 206 205 204 201 197 198 199 199 197
332 333 333 333 333 333 332 333 333 330 327 325 324 323 324 323 323 324 324 324 323 322 318 313 307 301 297 292 282 271 261 252 245 241 238 235 231 228 225 222 220 219 219 219 219 219 221 223 222 221 218 216 213 207 207 201 180 207 240 234 226 233 235 230 231 235 238 236 227 223 225 223 223 226 225 219 217 216 212 210 209 209 209 200 197 201 201 200
332 333 334 334 335 334 334 335 334 331 329 327 325 325 325 323 323 322 321 321 318 313 310 304 299 295 293 288 278 269 261 253 246 241 237 235 231 228 225 222 220 219 218 218 218 218 219 221 221 220 219 218 213 200 197 201 194 196 220 237 232 228 236 237 227 230 244 244 235 231 228 223 223 226 223 218 217 217 214 214 212 211 213 205 200 203 202 203
333 334 334 335 335 336 337 337 336 333 330 329 327 326 325 323 324 323 321 319 313 309 305 300 294 290 288 284 275 266 259 252 245 240 235 232 229 227 224 221 219 218 218 219 218 218 218 219 220 220 218 216 210 195 193 201 202 206 214 216 227 229 231 238 233 234 248 242 233 232 229 221 220 223 223 224 222 216 214 218 215 211 212 210 206 205 202 203
333 334 335 336 336 337 338 339 337 334 332 331 329 327 326 327 327 326 324 320 316 313 306 300 296 290 285 280 273 265 258 250 243 238 234 229 226 224 221 218 217 217 216 217 219 218 217 219 219 219 217 212 205 195 196 203 204 219 221 201 217 238 229 235 240 243 247 236 226 226 229 225 223 226 228 230 226 216 214 215 212 210 211 212 210 208 204 203
334 335 337 337 338 339 340 341 337 335 335 333 331 331 331 332 331 329 328 325 319 315 313 309 304 296 287 279 273 266 257 250 245 239 233 229 226 223 221 218 216 216 216 216 218 219 218 219 219 219 216 210 203 198 200 205 206 217 208 182 247 261 243 242 239 242 243 235 229 222 222 225 223 227 230 228 225 220 212 205 208 211 209 211 211 208 206 205
334 336 338 338 339 339 341 342 338 337 338 336 337 336 336 337 335 332 330 326 320 320 324 322 316 308 295 283 274 265 258 251 248 243 233 228 227 223 220 218 216 215 217 219 219 219 218 218 220 220 217 210 204 202 205 206 207 216 194 157 234 270 265 250 235 239 239 231 232 222 218 224 222 224 228 229 230 226 212 200 208 214 209 211 211 208 207 207
335 337 338 339 340 340 343 342 339 340 341 341 342 339 342 342 337 337 336 332 327 333 335 331 327 316 300 289 276 264 259 247 241 243 237 228 226 224 217 214 215 212 212 221 221 219 215 213 219 222 217 211 206 205 209 210 208 218 199 168 179 245 265 248 240 246 238 228 229 223 220 220 217 222 226 228 232 231 218 205 208 210 209 214 213 209 209 209
335 337 338 341 340 341 344 342 341 342 344 346 343 343 347 344 344 350 350 348 347 342 338 338 338 327 314 299 277 261 265 255 241 240 241 235 229 227 220 212 207 203 207 220 220 217 212 206 212 219 214 209 206 200 204 214 205 198 206 190 185 213 245 241 241 241 229 226 229 228 230 223 219 228 225 226 233 234 224 212 208 207 206 213 215 212 212 212
335 336 339 341 340 342 344 342 342 343 348 348 344 348 351 350 359 7 4 5 349 334 332 332 334 329 324 310 282 253 257 259 248 243 239 234 227 223 226 215 200 202 215 219 221 219 211 208 218 217 208 210 214 203 197 208 197 170 194 210 193 201 234 239 236 230 220 222 228 227 231 228 229 243 234 231 238 236 225 214 210 208 207 211 215 213 212 213
334 335 339 340 341 343 343 343 343 345 351 346 346 354 355 359 12 14 8 4 313 326 329 325 327 327 325 318 294 256 245 243 248 252 238 226 223 215 216 212 198 206 218 212 215 223 210 209 232 221 204 209 219 209 205 206 190 170 198 218 202 192 217 237 234 237 230 226 232 230 228 227 231 241 240 238 242 240 231 220 214 210 208 210 214 215 214 213
333 335 338 339 341 342 343 344 341 348 350 343 351 358 360 8 14 10 2 340 323 327 323 320 328 332 325 316 306 290 250 242 244 249 245 222 221 222 214 213 207 207 225 218 199 195 203 205 226 222 209 211 217 208 214 211 192 181 199 216 209 194 200 226 230 246 239 227 228 228 228 231 234 240 239 239 249 247 239 230 218 210 207 208 211 217 216 213
331 334 336 338 340 340 343 342 338 348 341 342 357 360 10 16 10 15 359 330 329 324 320 320 330 346 340 355 349 331 320 245 252 245 264 236 216 227 217 220 218 188 210 225 193 183 211 215 220 222 215 217 221 211 214 212 201 199 204 206 205 196 196 224 227 217 217 221 225 223 227 232 236 244 239 239 257 252 240 238 221 208 208 211 212 216 218 216
329 333 335 337 339 338 342 337 335 343 329 344 359 358 17 13 17 32 357 322 321 330 346 326 328 359 354 29 325 299 339 310 275 239 248 255 217 223 211 220 228 192 196 215 199 199 212 223 229 226 219 218 219 211 212 213 207 208 210 206 206 207 218 240 238 211 206 215 226 222 225 231 236 243 239 238 251 254 244 240 225 206 208 216 218 218 217 217
328 331 332 335 337 337 340 333 331 334 322 344 351 351 12 360 26 44 344 325 310 304 326 275 301 356 14 52 169 259 353 332 300 334 242 244 217 218 202 213 229 218 220 209 201 211 207 210 233 227 221 221 216 210 217 218 208 210 215 211 209 214 229 245 249 232 220 225 232 225 226 234 237 238 238 239 245 253 248 237 232 221 214 223 228 219 213 213
327 329 330 333 335 336 337 330 328 324 315 338 346 346 8 3 22 47 339 324 299 281 261 245 299 347 77 52 255 260 357 273 279 22 291 250 225 216 196 207 215 211 220 195 187 224 228 230 242 234 225 226 221 212 213 214 206 209 217 214 201 199 217 240 251 250 235 235 246 240 233 238 241 238 238 243 246 250 245 234 234 234 228 233 236 215 207 210
326 327 328 330 334 335 333 328 322 312 308 329 346 345 1 15 15 37 3 316 317 341 332 286 333 30 46 47 268 270 350 239 209 45 291 265 218 218 204 211 219 216 218 190 175 208 238 252 258 251 237 231 226 208 192 209 221 219 216 210 202 198 206 222 241 255 250 251 262 256 246 241 243 243 237 239 244 242 238 237 234 233 231 231 228 211 204 209
325 324 326 327 331 333 330 326 315 303 306 314 331 343 350 16 348 234 235 287 320 38 333 285 360 59 327 329 318 295 200 241 258 148 255 243 192 218 211 200 205 226 223 197 183 192 202 235 262 263 248 231 222 197 178 190 217 234 230 217 213 212 206 207 211 219 232 240 243 251 253 242 239 248 247 243 244 238 238 250 241 229 227 226 223 214 208 209
324 322 323 323 328 333 328 325 313 298 296 296 306 323 332 331 230 241 269 290 295 238 200 285 347 40 257 264 298 295 222 237 265 213 225 206 190 214 202 194 200 202 211 210 195 185 179 197 238 248 242 233 221 197 191 191 189 226 253 237 222 213 204 211 215 209 214 223 220 232 257 255 242 246 249 247 247 240 240 251 239 224 225 225 219 214 211 210
323 320 321 320 326 331 325 325 312 289 274 279 297 301 304 311 278 279 305 301 300 307 171 315 327 185 269 288 283 277 263 251 239 244 220 193 197 209 179 205 211 196 199 208 195 187 181 180 207 210 204 225 218 199 202 207 196 191 242 262 240 222 209 207 219 226 232 235 223 224 254 266 259 250 247 245 246 241 238 243 239 231 231 227 217 213 214 213
322 319 318 318 322 327 326 320 296 276 268 274 301 299 275 298 307 310 318 316 311 312 325 320 281 160 189 292 279 238 297 289 267 268 215 200 208 188 165 189 211 207 213 201 186 193 197 188 200 205 182 212 229 210 207 214 207 185 177 215 232 230 225 216 209 213 225 231 230 234 251 260 257 251 246 244 245 243 239 241 245 241 237 233 223 216 217 219
320 318 317 316 318 323 321 306 286 271 263 262 335 327 280 285 304 308 318 325 314 300 23 13 307 228 207 262 310 250 286 308 274 249 210 219 219 191 194 198 201 212 221 199 189 199 207 204 212 203 178 218 244 225 208 213 212 195 186 194 204 219 234 234 224 214 206 212 226 243 254 258 257 255 249 241 242 244 238 234 239 241 238 236 232 222 218 220
316 317 314 310 315 318 313 300 283 269 261 256 254 273 266 280 300 306 316 322 311 298 154 144 248 236 226 263 322 250 223 235 250 233 206 231 230 216 224 222 208 216 215 197 197 201 196 203 212 194 179 211 238 227 205 204 213 207 196 187 185 205 219 229 235 230 215 201 206 226 246 255 262 267 263 246 240 244 241 233 232 237 236 233 230 225 218 217
314 315 313 310 314 312 304 293 275 265 267 275 274 254 248 276 291 298 313 318 309 292 251 235 261 239 246 254 265 262 257 260 245 239 241 239 231 235 244 237 231 241 225 190 198 224 203 202 212 199 176 178 206 226 206 188 202 214 205 194 186 201 215 214 222 241 236 217 200 203 249 262 260 266 271 257 244 247 247 240 232 226 228 227 224 225 223 219
312 313 314 313 311 306 299 289 276 256 240 256 268 257 240 258 279 291 306 309 297 278 275 309 287 264 270 257 256 283 287 99 212 241 259 242 237 250 260 250 246 247 219 185 198 226 215 213 217 200 178 172 193 212 198 180 193 212 213 212 205 196 214 224 219 231 243 233 215 208 248 264 253 254 266 254 243 247 249 240 229 220 226 231 227 226 227 224
309 309 312 310 305 305 297 288 286 276 257 256 254 250 243 247 265 276 286 296 288 248 224 263 246 247 280 261 270 302 253 206 211 227 252 260 258 266 268 263 263 252 228 216 220 219 214 217 216 204 193 184 190 199 184 165 185 212 215 224 222 206 202 221 227 226 230 241 243 243 257 261 253 254 264 251 240 244 244 237 231 226 230 235 234 229 229 230
308 308 311 309 304 301 295 291 292 241 265 274 262 253 250 247 257 268 270 276 274 243 228 237 231 227 236 239 281 315 258 237 241 236 250 262 267 271 269 266 267 260 252 242 233 227 223 221 217 210 205 192 185 189 174 161 188 210 208 214 226 219 207 207 216 225 226 220 222 240 255 255 253 255 259 255 249 246 239 236 237 233 230 232 237 235 226 225
308 306 305 302 297 296 291 283 263 217 252 278 266 252 250 247 249 259 266 268 270 251 238 241 240 231 234 246 269 282 268 265 270 256 254 265 273 277 272 269 267 259 257 248 234 230 231 227 220 215 211 204 195 189 178 176 192 196 189 194 223 227 218 219 220 226 231 215 208 223 236 239 245 251 251 253 259 256 242 236 235 234 233 232 235 236 226 220
300 297 300 298 292 288 278 263 251 247 266 277 259 245 243 247 248 250 258 264 268 259 244 240 241 239 245 261 264 267 267 252 252 267 268 256 260 267 264 259 262 259 248 246 240 231 231 230 222 218 217 217 212 198 190 190 188 182 179 195 218 216 210 215 217 217 220 213 214 225 227 226 237 246 246 246 251 253 248 241 232 229 234 232 229 233 231 225
292 293 298 300 297 287 277 270 254 241 255 267 260 251 240 238 247 249 251 258 262 264 258 246 242 242 247 262 264 257 257 254 258 273 271 245 246 266 271 257 254 251 238 241 245 235 229 225 218 218 220 221 220 213 204 194 186 185 191 199 211 211 205 208 207 206 210 208 214 227 230 231 236 239 243 243 241 244 247 244 234 228 231 228 224 232 234 227
292 291 286 286 291 286 277 272 253 239 256 258 251 256 246 237 246 248 244 251 254 256 262 253 246 247 247 257 262 257 259 267 273 279 277 266 265 272 274 259 252 248 232 232 239 234 227 221 216 216 219 222 223 223 221 208 196 193 191 196 206 205 202 207 206 205 206 202 206 220 227 231 232 230 235 240 239 239 243 243 238 232 232 229 229 237 233 224
289 284 277 277 275 264 260 267 261 248 262 258 251 257 252 238 243 245 240 245 247 247 258 258 250 250 252 258 261 261 266 272 274 273 268 266 269 273 274 270 266 253 236 235 240 237 228 221 218 218 218 220 222 222 224 221 212 205 196 201 210 207 201 205 208 211 212 207 208 217 224 228 230 231 231 231 234 237 238 242 243 239 239 239 237 237 227 220
284 277 275 276 267 257 256 264 261 239 248 264 265 255 247 238 241 244 238 238 244 246 248 251 251 250 256 263 259 261 272 276 272 273 268 265 272 284 288 290 291 278 254 247 248 241 230 223 220 220 221 223 223 220 220 224 224 217 206 205 213 215 213 214 216 218 219 216 217 222 227 230 233 236 236 232 234 237 235 237 241 241 241 242 241 240 231 223
279 272 268 264 258 259 259 260 260 249 256 275 276 255 246 244 244 245 239 234 240 244 241 244 252 250 251 258 258 263 276 282 277 279 279 278 281 286 287 287 291 290 270 252 249 244 234 228 221 220 221 224 225 221 219 225 230 226 217 211 211 215 220 223 224 223 221 222 224 226 230 232 232 236 238 235 235 237 237 236 238 240 240 239 239 241 242 233
273 271 267 258 254 258 258 259 264 258 236 246 263 259 246 238 238 238 235 235 238 239 242 247 251 249 247 250 254 264 276 282 284 288 287 287 284 278 278 282 288 294 282 256 244 238 235 230 224 223 221 220 222 222 220 224 231 231 228 222 216 215 219 223 224 224 222 225 227 226 229 233 233 234 237 237 236 236 237 238 236 237 238 237 236 237 241 244
Height
5889 5888 5887 5886 5885 5884 5884 5883 5883 5882 5881 5881 5880 5880 5879 5879 5878 5878 5878 5878 5878 5878 5878 5878 5879 5879 5880 5880 5881 5881 5882 5883 5884 5885 5886 5887 5888 5888 5888 5888 5890 5891 5892 5893 5894 5895 5896 5897 5898 5898 5898 5899 5899 5899 5899 5899 5899 5899 5899 5899 5898 5899 5901 5899 5900 5901 5900 5900 5901 5901 5901 5902 5902 5902 5902 5903 5904 5903 5904 5904 5904 5904 5905 5905 5905 5905 5905 5905
5888 5887 5886 5885 5884 5883 5883 5882 5881 5881 5880 5880 5879 5879 5878 5878 5877 5877 5876 5876 5876 5876 5876 5876 5877 5877 5877 5878 5879 5879 5880 5881 5881 5883 5884 5885 5886 5887 5887 5887 5888 5889 5890 5891 5892 5894 5895 5896 5897 5897 5898 5898 5899 5899 5899 5899 5899 5899 5899 5899 5898 5899 5900 5899 5899 5899 5899 5899 5900 5900 5900 5900 5901 5903 5903 5903 5904 5904 5904 5905 5905 5905 5905 5906 5906 5906 5906 5906
5887 5886 5885 5884 5883 5882 5881 5881 5880 5879 5879 5878 5877 5877 5876 5876 5875 5875 5875 5874 5874 5874 5874 5874 5874 5875 5875 5875 5876 5877 5878 5878 5879 5881 5882 5883 5884 5885 5885 5885 5886 5887 5888 5889 5891 5893 5894 5895 5896 5897 5897 5898 5898 5899 5899 5899 5899 5899 5899 5899 5898 5898 5899 5898 5898 5897 5897 5897 5898 5898 5898 5899 5901 5902 5903 5903 5904 5904 5904 5905 5905 5905 5906 5907 5907 5907 5907 5907
5886 5885 5884 5883 5882 5881 5880 5879 5878 5877 5877 5876 5875 5875 5874 5874 5873 5873 5873 5872 5872 5872 5872 5872 5872 5872 5872 5873 5873 5874 5875 5875 5877 5879 5879 5880 5882 5883 5883 5883 5884 5885 5886 5887 5889 5891 5892 5894 5895 5896 5897 5897 5898 5898 5898 5898 5898 5898 5898 5898 5897 5896 5897 5898 5897 5896 5896 5896 5896 5896 5897 5899 5900 5902 5903 5903 5904 5904 5905 5905 5906 5906 5906 5907 5908 5908 5908 5908
5885 5884 5883 5882 5881 5879 5878 5877 5876 5876 5875 5874 5873 5873 5872 5872 5871 5871 5870 5870 5870 5869 5870 5870 5869 5870 5870 5870 5871 5872 5872 5871 5875 5877 5876 5879 5880 5880 5881 5882 5883 5883 5885 5886 5887 5888 5890 5892 5893 5895 5895 5896 5897 5898 5898 5898 5898 5898 5898 5897 5896 5895 5896 5897 5897 5895 5895 5895 5894 5895 5896 5898 5900 5902 5903 5904 5904 5905 5905 5906 5906 5907 5907 5907 5909 5909 5909 5909
5883 5882 5881 5880 5879 5878 5876 5875 5874 5873 5873 5872 5871 5870 5869 5869 5868 5868 5867 5867 5867 5867 5867 5867 5867 5867 5867 5868 5868 5869 5869 5868 5874 5875 5873 5876 5877 5878 5879 5880 5881 5882 5883 5884 5885 5886 5888 5890 5891 5893 5894 5895 5896 5897 5897 5897 5897 5897 5897 5897 5896 5895 5895 5896 5897 5896 5894 5892 5892 5894 5896 5898 5900 5901 5903 5904 5905 5905 5906 5906 5907 5908 5908 5908 5909 5910 5910 5910
5882 5881 5879 5878 5877 5876 5874 5873 5872 5871 5870 5869 5868 5868 5867 5866 5865 5865 5865 5864 5864 5864 5864 5864 5864 5864 5864 5865 5864 5865 5865 5865 5871 5872 5870 5874 5874 5875 5877 5877 5879 5880 5881 5882 5883 5884 5886 5888 5889 5891 5892 5893 5895 5896 5896 5896 5897 5897 5896 5896 5896 5895 5895 5897 5898 5897 5894 5892 5893 5895 5897 5899 5900 5901 5903 5904 5905 5905 5906 5907 5907 5908 5909 5909 5910 5911 5911 5912
5880 5879 5878 5876 5875 5874 5872 5871 5870 5869 5868 5866 5865 5865 5864 5863 5862 5862 5861 5861 5861 5860 5860 5860 5861 5861 5861 5861 5861 5861 5860 5862 5869 5869 5867 5870 5871 5873 5874 5875 5877 5877 5879 5879 5880 5882 5883 5886 5887 5889 5890 5891 5893 5894 5895 5896 5896 5896 5896 5895 5896 5896 5897 5898 5898 5898 5896 5894 5896 5898 5899 5900 5901 5902 5903 5904 5905 5906 5906 5907 5908 5908 5909 5910 5911 5912 5912 5913
5879 5877 5876 5875 5873 5872 5870 5869 5867 5866 5865 5864 5863 5862 5860 5860 5859 5858 5858 5857 5857 5857 5857 5857 5857 5857 5857 5857 5857 5856 5856 5861 5866 5865 5864 5866 5869 5870 5871 5873 5874 5875 5876 5877 5878 5880 5882 5884 5885 5886 5887 5889 5891 5893 5894 5895 5896 5895 5895 5894 5895 5897 5899 5899 5898 5897 5896 5896 5897 5899 5900 5901 5902 5903 5903 5904 5905 5906 5907 5908 5908 5909 5910 5910 5911 5912 5913 5913
5877 5876 5874 5873 5871 5870 5868 5867 5865 5864 5862 5861 5860 5858 5857 5856 5855 5855 5854 5853 5853 5853 5853 5853 5853 5853 5853 5853 5853 5851 5854 5859 5861 5861 5861 5863 5865 5867 5868 5870 5872 5873 5874 5875 5876 5878 5879 5881 5882 5884 5887 5889 5890 5892 5893 5894 5894 5894 5894 5893 5894 5896 5898 5899 5898 5898 5897 5897 5899 5900 5901 5902 5903 5903 5904 5905 5905 5907 5908 5908 5909 5910 5910 5911 5912 5913 5914 5914
5876 5874 5873 5871 5869 5868 5866 5864 5863 5861 5860 5858 5857 5855 5854 5853 5852 5851 5850 5850 5849 5849 5849 5849 5849 5849 5848 5849 5847 5847 5853 5856 5856 5857 5857 5858 5861 5863 5865 5867 5869 5870 5871 5872 5873 5875 5877 5878 5880 5883 5885 5887 5888 5890 5891 5892 5892 5893 5893 5893 5894 5895 5897 5898 5898 5898 5898 5899 5900 5900 5901 5902 5903 5904 5904 5905 5905 5907 5908 5909 5910 5910 5911 5912 5912 5913 5914 5915
5875 5873 5871 5869 5868 5866 5864 5862 5860 5858 5857 5855 5853 5852 5851 5849 5848 5847 5846 5845 5845 5845 5844 5844 5844 5844 5844 5843 5842 5846 5850 5850 5851 5852 5852 5854 5856 5858 5862 5864 5866 5867 5868 5869 5870 5873 5874 5876 5880 5882 5882 5885 5887 5889 5890 5891 5890 5891 5892 5893 5894 5896 5898 5899 5899 5899 5899 5899 5900 5900 5901 5902 5903 5904 5904 5905 5906 5907 5908 5909 5910 5911 5911 5912 5913 5914 5914 5916
5873 5871 5869 5867 5866 5864 5862 5860 5858 5856 5854 5852 5850 5849 5847 5846 5845 5843 5842 5841 5841 5840 5840 5840 5839 5839 5839 5838 5839 5843 5843 5843 5846 5847 5848 5850 5852 5854 5857 5860 5862 5864 5865 5866 5868 5870 5872 5875 5878 5879 5881 5884 5886 5887 5889 5890 5889 5890 5892 5892 5894 5896 5899 5899 5899 5900 5900 5900 5900 5901 5902 5902 5903 5904 5905 5905 5906 5907 5908 5909 5910 5911 5912 5912 5913 5914 5915 5916
5871 5869 5867 5865 5863 5861 5859 5857 5855 5853 5851 5849 5847 5845 5844 5842 5841 5840 5838 5837 5836 5836 5835 5835 5835 5834 5834 5834 5836 5837 5837 5839 5841 5842 5843 5846 5848 5850 5853 5855 5859 5860 5862 5864 5865 5867 5870 5874 5876 5877 5881 5883 5884 5885 5887 5888 5889 5890 5891 5892 5894 5896 5897 5899 5900 5900 5900 5900 5901 5902 5903 5903 5903 5904 5904 5905 5906 5908 5908 5909 5910 5911 5912 5913 5914 5914 5915 5916
5869 5867 5865 5863 5861 5859 5857 5854 5852 5850 5848 5846 5844 5842 5841 5839 5838 5836 5835 5834 5832 5831 5831 5830 5830 5830 5829 5830 5831 5831 5832 5834 5835 5837 5840 5842 5844 5846 5848 5852 5855 5857 5859 5861 5863 5865 5868 5871 5873 5875 5878 5879 5881 5884 5886 5887 5888 5889 5891 5892 5894 5894 5896 5899 5900 5900 5899 5900 5902 5902 5903 5904 5904 5904 5904 5905 5906 5907 5909 5910 5910 5911 5912 5913 5914 5915 5916 5916
5867 5865 5863 5861 5859 5857 5854 5852 5850 5847 5845 5843 5841 5839 5838 5836 5834 5833 5832 5830 5829 5828 5827 5827 5826 5826 5825 5827 5827 5827 5828 5830 5832 5834 5835 5837 5840 5842 5845 5848 5851 5854 5856 5858 5861 5863 5865 5867 5869 5872 5875 5876 5879 5882 5884 5886 5887 5888 5890 5892 5893 5893 5895 5897 5899 5900 5899 5900 5902 5902 5902 5903 5903 5904 5904 5905 5906 5907 5908 5909 5910 5911 5911 5913 5914 5915 5916 5917
5865 5864 5861 5859 5857 5855 5852 5850 5847 5845 5842 5840 5838 5837 5835 5833 5832 5831 5830 5828 5827 5826 5825 5824 5824 5823 5823 5824 5824 5824 5825 5827 5829 5830 5831 5834 5836 5839 5842 5845 5848 5851 5852 5855 5858 5860 5862 5863 5865 5869 5872 5874 5877 5879 5882 5884 5887 5889 5889 5891 5892 5892 5893 5895 5897 5899 5899 5900 5902 5902 5901 5902 5902 5903 5904 5904 5905 5906 5908 5909 5909 5910 5911 5912 5914 5915 5916 5917
5864 5862 5859 5857 5855 5853 5850 5848 5845 5842 5840 5838 5836 5834 5833 5831 5830 5829 5828 5827 5826 5825 5824 5823 5822 5822 5821 5822 5822 5823 5823 5824 5826 5827 5828 5831 5833 5836 5838 5841 5844 5847 5850 5853 5855 5857 5859 5861 5864 5867 5869 5871 5874 5877 5880 5883 5887 5891 5890 5889 5890 5890 5891 5893 5894 5896 5898 5899 5901 5900 5900 5901 5901 5902 5903 5904 5905 5905 5907 5908 5909 5910 5911 5912 5913 5915 5916 5916
5862 5859 5857 5855 5853 5851 5848 5845 5843 5840 5838 5836 5834 5832 5831 5830 5828 5827 5826 5825 5824 5824 5823 5822 5821 5820 5820 5820 5821 5821 5821 5822 5823 5824 5826 5828 5830 5833 5835 5838 5842 5844 5847 5849 5851 5854 5856 5858 5861 5864 5866 5869 5872 5875 5880 5881 5884 5889 5889 5887 5888 5888 5889 5891 5892 5894 5895 5896 5897 5897 5898 5899 5900 5901 5902 5903 5904 5905 5906 5907 5908 5909 5911 5912 5913 5914 5915 5916
5860 5858 5855 5853 5851 5848 5846 5843 5841 5838 5836 5834 5832 5830 5829 5828 5827 5826 5825 5824 5823 5822 5822 5821 5820 5820 5819 5820 5820 5819 5820 5820 5821 5822 5824 5826 5828 5830 5833 5836 5839 5841 5844 5846 5849 5851 5853 5855 5858 5861 5865 5868 5871 5875 5878 5879 5879 5883 5886 5887 5887 5887 5888 5889 5890 5892 5893 5894 5894 5895 5896 5898 5899 5900 5901 5902 5903 5904 5905 5906 5907 5908 5910 5912 5913 5914 5915 5916
5858 5856 5854 5851 5849 5846 5844 5841 5839 5836 5834 5832 5831 5829 5828 5827 5826 5825 5824 5823 5822 5821 5821 5820 5819 5819 5818 5818 5818 5818 5819 5819 5820 5821 5822 5824 5826 5828 5830 5833 5836 5838 5841 5844 5846 5847 5850 5853 5855 5859 5863 5867 5871 5874 5875 5875 5877 5880 5884 5885 5885 5886 5887 5887 5888 5890 5892 5892 5892 5893 5895 5897 5898 5898 5900 5901 5902 5903 5904 5905 5907 5908 5909 5911 5912 5913 5914 5915
5856 5854 5852 5849 5847 5844 5842 5840 5837 5835 5833 5831 5830 5828 5827 5825 5824 5823 5823 5822 5821 5820 5819 5819 5818 5817 5817 5817 5817 5817 5817 5817 5818 5819 5820 5822 5824 5825 5827 5830 5833 5836 5838 5840 5842 5845 5848 5850 5853 5857 5861 5865 5869 5871 5872 5872 5875 5878 5880 5882 5883 5884 5886 5886 5886 5888 5891 5891 5891 5891 5893 5894 5895 5896 5898 5899 5900 5901 5901 5903 5905 5907 5908 5910 5911 5912 5913 5915
5855 5852 5850 5848 5845 5843 5840 5838 5836 5834 5832 5830 5829 5827 5826 5825 5823 5822 5821 5821 5820 5819 5818 5818 5817 5816 5816 5815 5815 5816 5816 5816 5817 5818 5819 5820 5821 5823 5826 5829 5831 5834 5836 5838 5840 5843 5846 5849 5852 5855 5859 5863 5866 5868 5869 5870 5872 5875 5877 5882 5885 5884 5884 5885 5885 5886 5888 5889 5889 5891 5891 5892 5893 5894 5895 5896 5897 5897 5899 5902 5904 5906 5907 5909 5910 5912 5913 5914
5853 5850 5848 5846 5843 5841 5839 5837 5834 5832 5831 5829 5828 5827 5825 5824 5823 5821 5820 5820 5819 5818 5818 5817 5816 5815 5815 5814 5814 5815 5815 5816 5816 5816 5818 5819 5820 5822 5825 5828 5830 5833 5835 5837 5839 5841 5844 5848 5851 5854 5858 5861 5863 5865 5866 5868 5872 5873 5875 5880 5885 5885 5883 5882 5883 5884 5886 5888 5888 5889 5890 5890 5891 5892 5893 5894 5894 5896 5900 5903 5903 5904 5906 5907 5909 5911 5912 5913
5851 5849 5847 5844 5842 5840 5838 5835 5833 5832 5830 5829 5828 5826 5825 5824 5822 5821 5820 5818 5818 5817 5818 5817 5816 5815 5814 5813 5813 5814 5814 5814 5814 5815 5817 5817 5819 5821 5824 5827 5829 5832 5835 5836 5837 5839 5843 5847 5850 5852 5855 5858 5862 5864 5866 5868 5870 5873 5875 5878 5882 5884 5882 5879 5880 5882 5884 5886 5887 5888 5889 5889 5890 5890 5891 5892 5893 5895 5899 5901 5901 5903 5905 5906 5908 5909 5911 5912
5849 5847 5845 5843 5841 5838 5836 5834 5833 5831 5829 5828 5827 5826 5825 5823 5822 5821 5820 5818 5818 5817 5815 5815 5815 5814 5814 5813 5813 5813 5813 5813 5813 5814 5816 5816 5818 5821 5823 5825 5827 5830 5833 5833 5834 5838 5842 5845 5846 5848 5852 5856 5859 5860 5863 5865 5868 5872 5877 5878 5879 5883 5881 5877 5878 5880 5882 5884 5885 5886 5888 5888 5889 5890 5890 5891 5893 5894 5896 5898 5899 5902 5903 5905 5906 5908 5910 5911
5848 5846 5844 5842 5840 5837 5835 5834 5832 5830 5829 5828 5827 5826 5825 5823 5822 5821 5820 5819 5820 5819 5816 5815 5815 5814 5814 5813 5813 5813 5813 5812 5812 5813 5814 5816 5818 5820 5822 5824 5826 5828 5830 5832 5835 5838 5842 5843 5843 5846 5850 5853 5855 5856 5859 5862 5866 5871 5875 5876 5876 5881 5881 5878 5879 5879 5881 5882 5883 5885 5886 5887 5888 5888 5890 5891 5892 5892 5893 5895 5897 5899 5902 5904 5905 5907 5909 5910
5847 5845 5842 5840 5838 5837 5835 5833 5832 5830 5829 5828 5827 5826 5824 5823 5822 5821 5820 5821 5821 5820 5817 5817 5816 5814 5814 5813 5813 5813 5812 5813 5813 5813 5814 5815 5817 5818 5821 5823 5825 5827 5828 5831 5835 5838 5842 5844 5842 5844 5848 5850 5851 5855 5857 5859 5863 5867 5870 5872 5873 5876 5878 5880 5880 5881 5881 5881 5882 5884 5884 5885 5886 5887 5889 5889 5890 5891 5892 5893 5895 5897 5901 5902 5904 5906 5907 5909
5845 5843 5841 5839 5837 5836 5834 5832 5831 5829 5829 5828 5827 5826 5824 5823 5823 5822 5821 5821 5821 5819 5818 5816 5815 5815 5814 5813 5813 5813 5813 5812 5813 5813 5814 5815 5816 5817 5819 5821 5823 5826 5828 5831 5834 5838 5841 5841 5839 5839 5844 5847 5850 5853 5856 5857 5861 5864 5867 5870 5872 5874 5877 5879 5880 5881 5881 5880 5881 5883 5883 5884 5885 5886 5887 5888 5889 5890 5891 5892 5893 5895 5898 5900 5902 5905 5906 5907
5844 5842 5840 5838 5837 5835 5833 5832 5830 5829 5829 5828 5827 5825 5824 5824 5823 5822 5822 5822 5821 5819 5818 5816 5815 5815 5813 5813 5814 5814 5814 5813 5812 5813 5814 5815 5816 5817 5819 5821 5822 5825 5829 5831 5832 5834 5836 5835 5835 5838 5842 5845 5848 5852 5854 5857 5861 5863 5865 5867 5869 5871 5873 5875 5876 5877 5878 5878 5881 5883 5883 5883 5884 5885 5887 5887 5888 5889 5890 5892 5892 5894 5897 5898 5900 5903 5905 5907
5843 5841 5839 5837 5836 5834 5832 5831 5830 5829 5828 5827 5827 5826 5825 5824 5823 5823 5824 5824 5822 5820 5819 5817 5816 5815 5814 5815 5817 5817 5817 5815 5813 5814 5815 5815 5816 5817 5819 5821 5822 5825 5828 5830 5831 5832 5834 5835 5835 5836 5840 5843 5846 5850 5853 5855 5859 5862 5863 5864 5867 5869 5870 5871 5873 5874 5875 5877 5880 5882 5882 5883 5883 5884 5886 5887 5888 5889 5891 5892 5892 5894 5896 5898 5900 5902 5904 5906
5842 5840 5838 5836 5835 5833 5832 5831 5829 5829 5828 5827 5827 5826 5825 5825 5824 5825 5825 5825 5823 5821 5820 5819 5817 5816 5816 5817 5819 5818 5818 5817 5814 5814 5815 5816 5816 5817 5819 5821 5823 5825 5827 5829 5831 5832 5833 5835 5834 5835 5839 5842 5845 5849 5852 5854 5858 5861 5861 5862 5865 5869 5871 5872 5873 5874 5876 5878 5880 5880 5881 5882 5882 5884 5885 5886 5887 5889 5890 5891 5892 5893 5895 5897 5898 5900 5903 5905
5840 5838 5837 5835 5834 5832 5831 5830 5829 5829 5828 5827 5826 5826 5826 5825 5825 5827 5828 5826 5823 5821 5820 5819 5817 5817 5817 5819 5820 5818 5818 5818 5816 5815 5815 5815 5816 5817 5819 5820 5821 5823 5824 5827 5832 5834 5834 5834 5833 5835 5839 5841 5844 5849 5853 5855 5857 5859 5859 5860 5864 5868 5871 5874 5875 5875 5876 5879 5879 5879 5880 5881 5881 5883 5886 5886 5886 5888 5890 5891 5892 5892 5894 5895 5896 5897 5900 5902
5839 5837 5836 5834 5833 5832 5830 5829 5829 5828 5828 5827 5826 5826 5825 5825 5827 5828 5828 5826 5822 5820 5820 5819 5817 5817 5818 5819 5819 5818 5818 5817 5816 5817 5816 5815 5817 5817 5818 5819 5821 5822 5824 5825 5829 5833 5835 5835 5833 5834 5837 5839 5842 5849 5854 5857 5858 5857 5856 5859 5863 5867 5871 5874 5876 5877 5878 5880 5881 5879 5879 5880 5880 5882 5885 5885 5885 5887 5888 5890 5891 5892 5893 5894 5895 5896 5898 5901
5838 5836 5835 5833 5832 5831 5830 5829 5828 5828 5827 5827 5826 5826 5825 5826 5827 5827 5825 5823 5821 5821 5822 5819 5817 5818 5820 5820 5818 5817 5817 5816 5815 5816 5816 5815 5816 5817 5817 5819 5820 5822 5824 5825 5826 5828 5832 5837 5836 5834 5835 5836 5840 5847 5849 5854 5858 5856 5854 5857 5861 5866 5869 5871 5873 5875 5877 5879 5881 5879 5876 5878 5880 5880 5882 5883 5884 5886 5887 5888 5889 5891 5893 5893 5894 5895 5897 5899
5836 5835 5834 5833 5831 5830 5829 5828 5827 5827 5827 5826 5826 5825 5825 5825 5825 5824 5822 5822 5820 5820 5820 5819 5818 5820 5822 5820 5818 5817 5815 5814 5815 5815 5814 5814 5815 5816 5817 5818 5818 5820 5822 5823 5824 5826 5829 5834 5834 5832 5833 5834 5838 5844 5846 5849 5855 5856 5854 5856 5858 5863 5867 5869 5871 5873 5874 5875 5878 5878 5875 5876 5879 5879 5880 5882 5884 5886 5886 5887 5888 5890 5892 5893 5894 5895 5896 5898
5835 5834 5833 5831 5830 5829 5828 5827 5827 5826 5826 5825 5825 5825 5824 5824 5823 5823 5822 5820 5819 5818 5818 5820 5819 5819 5821 5820 5818 5817 5816 5814 5814 5814 5813 5814 5814 5815 5817 5817 5817 5818 5820 5821 5824 5825 5825 5827 5830 5831 5833 5834 5835 5840 5843 5846 5851 5854 5856 5858 5858 5860 5863 5866 5869 5872 5873 5875 5877 5879 5877 5875 5877 5878 5879 5881 5883 5884 5885 5886 5887 5889 5891 5892 5893 5895 5896 5898
5834 5832 5831 5830 5829 5828 5827 5826 5826 5825 5825 5825 5824 5824 5824 5823 5822 5822 5821 5819 5818 5817 5817 5819 5818 5818 5820 5819 5818 5818 5816 5814 5814 5814 5814 5814 5814 5814 5815 5816 5816 5817 5818 5820 5822 5825 5825 5826 5828 5829 5834 5836 5834 5836 5840 5843 5847 5850 5853 5857 5858 5859 5861 5862 5865 5869 5872 5875 5877 5880 5878 5874 5874 5876 5877 5879 5880 5882 5884 5884 5886 5888 5891 5892 5893 5894 5895 5897
5832 5831 5830 5829 5828 5827 5826 5825 5825 5824 5824 5824 5824 5824 5823 5822 5821 5821 5820 5818 5817 5817 5817 5818 5818 5817 5818 5817 5817 5817 5816 5815 5814 5813 5814 5814 5813 5814 5813 5813 5815 5816 5817 5819 5821 5823 5825 5826 5826 5828 5833 5835 5833 5834 5838 5842 5845 5848 5850 5853 5855 5859 5861 5862 5864 5866 5870 5872 5875 5879 5878 5874 5873 5875 5877 5879 5879 5879 5881 5884 5885 5887 5890 5891 5892 5893 5894 5895
5830 5829 5828 5827 5826 5826 5825 5824 5824 5823 5823 5822 5822 5823 5822 5821 5820 5820 5819 5818 5817 5816 5816 5816 5817 5816 5816 5816 5816 5815 5814 5814 5813 5813 5813 5813 5813 5813 5812 5812 5813 5814 5816 5818 5821 5822 5823 5824 5825 5825 5829 5832 5833 5834 5837 5841 5845 5847 5849 5851 5855 5859 5861 5861 5863 5865 5867 5869 5871 5875 5875 5873 5873 5874 5875 5877 5878 5876 5878 5882 5884 5886 5888 5889 5890 5891 5892 5894
5828 5827 5827 5825 5825 5824 5824 5823 5823 5822 5822 5822 5821 5821 5821 5820 5819 5819 5818 5817 5816 5815 5815 5814 5814 5814 5815 5815 5814 5813 5812 5813 5813 5813 5812 5812 5812 5811 5811 5811 5812 5813 5815 5818 5821 5821 5819 5820 5821 5822 5824 5828 5832 5833 5833 5838 5844 5847 5849 5850 5853 5857 5859 5860 5863 5864 5865 5867 5869 5871 5871 5870 5871 5872 5872 5873 5874 5874 5876 5879 5882 5884 5885 5886 5888 5889 5890 5892
5826 5825 5825 5824 5823 5822 5822 5821 5821 5821 5821 5821 5821 5820 5819 5820 5819 5818 5817 5816 5816 5815 5815 5815 5814 5813 5814 5813 5812 5812 5812 5812 5812 5813 5812 5811 5811 5810 5810 5811 5812 5813 5814 5816 5816 5816 5817 5818 5820 5822 5821 5822 5826 5828 5830 5835 5841 5845 5847 5848 5851 5855 5858 5861 5863 5865 5865 5866 5867 5869 5868 5866 5866 5870 5871 5869 5870 5872 5874 5876 5879 5882 5883 5884 5886 5888 5888 5890
5825 5824 5823 5823 5822 5821 5821 5820 5820 5821 5820 5819 5819 5818 5818 5818 5818 5817 5816 5816 5815 5815 5815 5815 5814 5812 5812 5811 5810 5811 5811 5810 5811 5811 5811 5810 5809 5809 5809 5810 5811 5812 5812 5813 5813 5814 5815 5816 5818 5820 5821 5821 5823 5826 5828 5832 5839 5844 5847 5849 5850 5853 5857 5860 5863 5864 5865 5866 5868 5869 5868 5863 5862 5867 5869 5867 5867 5870 5872 5874 5877 5879 5880 5881 5883 5885 5887 5888
5823 5822 5822 5821 5820 5820 5820 5819 5818 5821 5821 5818 5817 5817 5817 5817 5817 5816 5815 5815 5814 5814 5814 5814 5813 5812 5811 5811 5810 5810 5809 5809 5809 5810 5810 5809 5808 5808 5809 5809 5810 5810 5811 5811 5812 5813 5814 5814 5816 5819 5820 5821 5822 5825 5827 5830 5836 5841 5844 5847 5849 5851 5853 5857 5859 5861 5861 5864 5867 5867 5864 5861 5859 5862 5864 5863 5863 5865 5867 5870 5873 5875 5878 5879 5881 5883 5885 5886
5821 5820 5820 5820 5819 5818 5818 5818 5818 5819 5819 5817 5816 5816 5816 5816 5815 5815 5814 5814 5813 5813 5813 5812 5812 5811 5811 5810 5810 5809 5809 5809 5808 5808 5809 5808 5807 5807 5807 5808 5808 5808 5810 5810 5810 5811 5812 5813 5816 5818 5818 5819 5820 5822 5824 5826 5830 5835 5840 5845 5849 5850 5851 5853 5855 5857 5857 5860 5863 5860 5857 5857 5857 5857 5858 5859 5859 5860 5864 5868 5871 5873 5875 5877 5880 5881 5881 5883
5819 5818 5818 5817 5817 5817 5817 5817 5817 5817 5816 5815 5814 5814 5814 5814 5813 5813 5813 5813 5812 5812 5812 5812 5811 5810 5810 5810 5809 5808 5808 5808 5807 5807 5807 5806 5805 5805 5805 5806 5806 5807 5808 5808 5808 5809 5810 5811 5814 5815 5816 5817 5818 5820 5822 5824 5828 5833 5837 5842 5844 5845 5846 5847 5850 5853 5854 5857 5858 5855 5853 5855 5856 5855 5856 5858 5858 5858 5862 5867 5871 5872 5873 5875 5878 5879 5879 5879
5817 5817 5816 5815 5815 5815 5815 5815 5815 5815 5814 5813 5812 5812 5812 5812 5812 5812 5812 5811 5811 5811 5810 5810 5810 5810 5810 5809 5808 5807 5807 5806 5806 5806 5806 5805 5804 5804 5803 5803 5803 5804 5805 5806 5806 5807 5807 5809 5811 5813 5815 5816 5818 5819 5820 5822 5824 5827 5830 5832 5833 5836 5840 5842 5845 5848 5849 5852 5854 5852 5850 5851 5852 5853 5855 5857 5858 5859 5861 5864 5868 5871 5873 5873 5875 5877 5878 5878
5815 5815 5814 5813 5813 5813 5813 5812 5812 5812 5812 5811 5810 5810 5810 5811 5811 5811 5810 5810 5810 5810 5809 5809 5809 5809 5809 5808 5807 5806 5806 5806 5805 5806 5806 5805 5804 5803 5802 5802 5801 5802 5803 5804 5804 5804 5805 5807 5809 5810 5812 5814 5816 5818 5819 5820 5821 5823 5825 5827 5828 5832 5835 5838 5841 5843 5844 5846 5848 5848 5847 5847 5848 5851 5854 5856 5857 5859 5860 5860 5863 5868 5871 5872 5873 5875 5876 5877
5813 5813 5811 5811 5811 5811 5811 5810 5809 5810 5811 5809 5808 5808 5809 5809 5810 5809 5808 5809 5809 5808 5808 5808 5808 5808 5807 5806 5806 5805 5805 5805 5805 5805 5804 5804 5803 5803 5802 5801 5800 5800 5801 5801 5801 5802 5804 5805 5806 5807 5809 5810 5813 5816 5818 5819 5820 5821 5823 5825 5826 5828 5831 5834 5837 5838 5839 5841 5843 5844 5844 5845 5846 5850 5853 5855 5856 5857 5858 5858 5860 5865 5867 5868 5871 5873 5874 5875
5810 5810 5808 5808 5809 5808 5809 5809 5807 5808 5808 5806 5806 5806 5807 5808 5808 5806 5807 5807 5807 5807 5807 5807 5807 5807 5806 5805 5805 5805 5804 5804 5804 5803 5803 5803 5803 5802 5801 5801 5800 5800 5800 5800 5800 5801 5802 5803 5804 5805 5807 5809 5811 5813 5816 5818 5818 5819 5820 5822 5824 5827 5830 5832 5834 5834 5836 5838 5840 5842 5842 5843 5845 5848 5851 5853 5854 5855 5856 5856 5858 5862 5863 5864 5866 5870 5873 5873
5807 5807 5806 5806 5806 5805 5806 5806 5805 5805 5804 5804 5804 5804 5804 5806 5805 5804 5805 5806 5805 5805 5806 5805 5805 5805 5805 5804 5804 5803 5803 5803 5803 5802 5802 5801 5801 5801 5800 5801 5800 5799 5799 5799 5799 5800 5801 5801 5802 5804 5805 5807 5809 5811 5814 5815 5816 5817 5819 5820 5822 5824 5827 5829 5829 5830 5834 5835 5838 5841 5840 5840 5843 5845 5847 5849 5850 5851 5854 5856 5857 5859 5861 5861 5862 5865 5868 5868
5804 5803 5803 5803 5802 5802 5803 5803 5802 5802 5803 5803 5803 5802 5802 5803 5802 5801 5803 5804 5803 5804 5804 5804 5804 5804 5803 5803 5803 5803 5802 5802 5802 5801 5801 5800 5800 5799 5799 5800 5799 5798 5798 5798 5798 5799 5799 5800 5801 5802 5803 5805 5807 5809 5811 5812 5813 5815 5816 5817 5819 5821 5823 5824 5824 5827 5830 5832 5834 5836 5836 5836 5839 5842 5843 5844 5846 5848 5851 5853 5854 5855 5857 5857 5858 5860 5861 5861